Tracking 33485 objects as of 15-Mar-2026
HD Live streaming from Space Station
objects crossing your sky now

CZ-3B DEB

Track CZ-3B DEB now!


NORAD ID: 40852
Int'l Code: 2011-077AH
Perigee: 952.6 km
Apogee: 41,243.7 km
Inclination: 26.9 °
Period: 755.1 minutes
Semi major axis: 27469 km
RCS: Unknown
Launch date: December 19, 2011
Source: People's Republic of China (PRC)
Launch site: Xichang Space Center, China (XSC)

Note: This is SATELLITE DEBRIS
Your satellite tracking list
Your tracking list is empty




NASA's NSSDC Master Catalog

Two Line Element Set (TLE):
1 40852U 11077AH  26066.80758556 -.00000469  00000-0  00000-0 0  9999
2 40852  26.8920  63.8864 7333874 263.4961  16.5992  1.90693005 84422
Source of the keplerian elements: AFSPC